Find Starlink 3078

NORAD ID: 49134 Int'l Des: 2021-082 Owner: SPXS Country: US Constellation: starlink operational
LEOCIRCULAR

实时位置

正在加载3D地球...

关于 Starlink 3078

正在加载描述...

即将过境

Passes for default location (London). Set your location on the main map for personalized predictions.

高度历史

Loading altitude history...

两行轨道根数

1 49134U 21082E 26121.52526606 -.00000336 00000-0 -20310-4 0 9992
2 49134 69.9992 161.2418 0004033 267.6349 92.4348 14.98330302255091
Epoch: May 1, 2026 • Age: 13 hours

当前状态

高度 586.3 km
速度 7.57 km/s
星下点 69.84°N, 11.88°E
发射日期 Sep 14, 2021
运行时间 4.6 years
类型 internet

技术详情

分类 Payload
质量 297.00 kg
干质量 275.00 kg
总质量 297.00 kg
长度 0.20 m
直径 2.80 m
跨度 9.00 m
形状 Box + pan
制造商 SPXS
平台类型 Starlink
阶段状态 In Orbit
所有者/国家 SPXS/US

Most Searched